Regional Weather Roundup
Issued by NWS Kansas City/Pleasant Hill, MO

Home | Current Version | Previous Version | Text Only | Print | Product List | Glossary On
Versions: 1 2 3 4 5 6 7 8 9 10 11 12 13 14 15 16 17 18 19 20 21 22 23 24 25 26 27 28 29 30 31 32 33 34 35 36 37 38 39 40 41 42 43 44 45 46 47 48 49 50
000
ASUS43 KEAX 290811
RWREAX

WEATHER ROUNDUP FOR EASTERN KANSAS AND NORTHWEST MISSOURI
NATIONAL WEATHER SERVICE KANSAS CITY/PLEASANT HILL MO
300 AM CDT FRI MAY 29 2015

KSZ040-057-103>105-MOZ028-029-037-043-290900-
...KANSAS CITY METROPOLITAN AREA...

CITY           SKY/WX    TMP DP  RH WIND       PRES   REMARKS
K.C. INTL      MOCLDY    62  62 100 S5        29.95S
K.C. DOWNTOWN  PTCLDY    65  61  87 S3        29.94S
LEES SUMMIT    MOCLDY    63  61  93 SE6       29.95F
OLATHE - IXD   CLOUDY    64  64 100 SE7       29.96R
OLATHE - OJC   CLOUDY    63  63 100 S5        29.95R
LAWRENCE       CLOUDY    65  63  93 SE6       29.93F

$$

MOZ001>008-011>017-020>025-030>033-038>040-044>046-053-054-290900-
...NORTHERN AND CENTRAL MISSOURI...

CITY           SKY/WX    TMP DP  RH WIND       PRES   REMARKS
ST. JOSEPH     CLEAR     64  62  93 S3        29.95S
MOSBY          MOSUNNY   63  63 100 CALM      29.95S
WARRENSBURG      N/A     63  63 100 E3        29.94S FOG
WHITEMAN AFB   PTCLDY    65  64  98 SE5       29.94S
CLINTON        CLOUDY    66  66 100 SE3       29.96S
SEDALIA        CLOUDY    65  63  93 S6        29.97F
WARSAW         NOT AVBL
CHILLICOTHE      N/A     66  64  93 SE3       29.95F
KIRKSVILLE     CLOUDY    64  64 100 CALM      29.97F

$$

MOZ041-047>049-056>058-063>065-088>090-097-290900-
...EASTERN AND SOUTHERN MISSOURI...

CITY           SKY/WX    TMP DP  RH WIND       PRES   REMARKS
ST. LOUIS INTL CLOUDY    74  64  71 S12       30.00F
SPIRIT OF STL  MOCLDY   N/A N/A N/A S6        29.98F
COLUMBIA       CLOUDY    66  65  96 S13       29.96F
JEFFERSON CITY MOCLDY    67  64  90 SE3       29.96F
ROLLA          MOCLDY    67  64  90 S9        29.97F
OSAGE BEACH    CLOUDY    64  63  94 S5        29.98S
SPRINGFIELD    MOCLDY    66  61  84 S12       29.98R
BRANSON        MOCLDY    64  61  88 S6        30.02S
JOPLIN         CLOUDY    68  64  87 S7        29.96R
WEST PLAINS    MOCLDY    68  64  87 S8        30.02F

$$

IAZ060-094-KSZ022-034>040-054-083-096-NEZ052-066-093-290900-
...KANSAS...SOUTHEAST NEBRASKA AND IOWA...

CITY           SKY/WX    TMP DP  RH WIND       PRES   REMARKS
TOPEKA         CLOUDY    66  65  96 E5        29.93F
MANHATTAN      LGT RAIN  67  66  97 E8        29.86F
EMPORIA        LGT RAIN  65  63  93 CALM      29.92F
CHANUTE        PTCLDY    68  66  93 SE7       29.91F
WICHITA        CLOUDY    66  65  96 CALM      29.90F
OMAHA          CLOUDY    67  64  90 S10       29.91F
LINCOLN        CLOUDY    67  64  90 E6        29.86F
FALLS CITY     CLOUDY    65  63  93 S8        29.92F
LAMONI         MOCLDY    66  62  87 CALM      29.95F
DES MOINES     MOCLDY    64  61  90 S5        29.95S

$$




USA.gov is the U.S. government's official web portal to all federal, state and local government web resources and services.